Back to catalog

STARLINK-33701

AliveCommunicationsVLEO
NORAD 63464·PAYLOAD·🇺🇸 United States

Launched Apr 6, 2025 from Cape Canaveral Space Force Station

Loading…

Next Passes (next 24 hours)

TLE

FreshSource: CelesTrak SupGP

Epoch: Sep 14, 2026, 21:40 UTC

1 63464C 25070E   26257.90326389  .00021747  00000+0  78783-3 0  2572
2 63464  42.9997 271.6072 0001465 264.9123 315.0533 15.27560569    10

Track STARLINK-33701 in real time with AllMySat

Download on the App Store